Location: Dead Woman Crossing
(43.5369°N, 106.3228°W)
Time: 01:55:09
(UTC+00:00)

deb Delta 126 - Visible Passes

Search period start: 10 December 2022 00:00
Search period end: 20 December 2022 00:00
Orbit: 1047 x 1646 km, 101.7° (Epoch: 09 December)

Date Brightness Start Highest point End Pass type
(mag) Time Alt. Az. Time Alt. Az. Time Alt. Az.
10 Dec ? 01:23:54 25° NE 01:27:36 51° ESE 01:34:21 10° S visible
10 Dec ? 03:16:33 28° NW 03:18:05 31° WNW 03:23:51 10° WSW visible
10 Dec ? 10:23:50 10° ENE 10:27:10 14° NE 10:30:23 10° NNE visible
10 Dec ? 12:09:37 10° SSE 12:16:51 70° ENE 12:23:23 10° NNW visible
10 Dec ? 23:58:37 10° ENE 00:00:17 11° E 00:01:58 10° ESE visible
11 Dec ? 01:48:31 31° NNE 01:51:53 74° ESE 01:58:55 10° SSW visible
11 Dec ? 03:41:10 21° NW 03:42:03 22° NW 03:46:56 10° WSW visible
11 Dec ? 10:46:16 10° E 10:51:01 20° NE 10:55:32 10° N visible
11 Dec ? 12:33:46 10° SSE 12:41:05 83° WSW 12:47:40 10° NNW visible
12 Dec ? 00:20:32 10° NE 00:24:52 18° E 00:29:24 10° SE visible
12 Dec ? 02:13:07 35° N 02:16:08 78° WNW 02:23:10 10° SSW visible
12 Dec ? 04:05:47 15° NW 04:05:55 15° NW 04:09:32 10° W visible
12 Dec ? 11:09:14 10° ESE 11:14:59 28° ENE 11:20:20 10° N visible
12 Dec ? 12:58:13 10° S 13:05:21 58° WSW 13:11:50 10° NNW visible
13 Dec ? 00:45:04 15° NE 00:49:20 27° E 00:55:13 10° SSE visible
13 Dec ? 02:37:43 35° N 02:40:18 55° WNW 02:47:07 10° SW visible
13 Dec ? 04:30:23 10° NW 04:30:23 10° NW 04:30:49 10° NW visible
13 Dec ? 11:32:35 10° SE 11:39:00 39° ENE 11:44:56 10° N visible
13 Dec ? 13:23:01 10° S 13:29:41 40° WSW 13:35:48 10° NNW visible
14 Dec ? 01:09:39 20° NE 01:13:44 41° ESE 01:20:25 10° S visible
14 Dec ? 03:02:19 31° NNW 03:04:23 38° WNW 03:10:45 10° SW visible
14 Dec ? 10:12:08 10° ENE 10:13:40 11° NE 10:15:11 10° NNE visible
14 Dec ? 11:56:14 10° SE 12:03:06 56° ENE 12:09:24 10° N visible
14 Dec ? 13:48:15 10° SSW 13:54:04 27° W 13:59:31 10° NW visible
15 Dec ? 01:34:14 26° NE 01:38:03 60° ESE 01:45:11 10° S visible
15 Dec ? 03:26:54 25° NW 03:28:24 27° WNW 03:34:04 10° WSW visible
15 Dec ? 10:33:42 10° E 10:37:27 16° NE 10:41:04 10° NNE visible
15 Dec ? 12:20:12 10° SSE 12:27:16 80° ENE 12:33:45 10° NNW visible
16 Dec ? 00:07:30 10° ENE 00:10:53 14° E 00:14:24 10° ESE visible
16 Dec ? 01:58:48 31° NNE 02:02:19 85° ESE 02:09:36 10° SSW visible
16 Dec ? 03:51:27 19° NW 03:52:20 20° NW 03:56:58 10° W visible
16 Dec ? 10:56:19 10° ESE 11:01:18 22° NE 11:06:04 10° N visible
16 Dec ? 12:44:26 10° SSE 12:51:29 72° WSW 12:57:58 10° NNW visible
17 Dec ? 00:30:42 11° NE 00:35:24 22° E 00:40:48 10° SE visible
17 Dec ? 02:23:21 33° N 02:26:30 69° WNW 02:33:43 10° SSW visible
17 Dec ? 04:16:01 14° NW 04:16:10 14° NW 04:19:19 10° WNW visible
17 Dec ? 11:19:25 10° ESE 11:25:15 31° ENE 11:30:46 10° N visible
17 Dec ? 13:09:01 10° S 13:15:46 49° WSW 13:22:02 10° NNW visible
18 Dec ? 00:55:15 16° NE 00:59:50 33° E 01:06:18 10° SSE visible
18 Dec ? 02:47:54 32° NNW 02:50:38 48° WNW 02:57:31 10° SW visible
18 Dec ? 11:42:53 10° SE 11:49:18 45° ENE 11:55:19 10° N visible
18 Dec ? 13:33:57 10° SSW 13:40:06 33° W 13:45:54 10° NW visible
19 Dec ? 01:19:47 21° NE 01:24:10 48° ESE 01:31:18 10° S visible
19 Dec ? 03:12:26 28° NNW 03:14:42 34° WNW 03:21:02 10° WSW visible
19 Dec ? 10:21:26 10° ENE 10:23:51 12° NE 10:26:14 10° NNE visible
19 Dec ? 12:06:38 10° SSE 12:13:24 64° ENE 12:19:43 10° NNW visible
19 Dec ? 13:59:23 10° SW 14:04:32 22° W 14:09:27 10° NW visible
